| time (UTC) | temp C | wind direction | speed KPH | gust KPH | rain 1hr cm | rain 24hr cm | rain mn cm | humidity % | barometer mb |
| 20260506192950 | 13 | 318 | 1.6 | 1.6 | 0.00 | 0.00 | 0.00 | 98 | 1005.3 |
| 20260506192447 | 13 | 247 | 1.6 | 1.6 | 0.00 | 0.00 | 0.00 | 98 | 1005.4 |
| 20260506191943 | 13 | 258 | 0.0 | 1.6 | 0.00 | 0.00 | 0.00 | 98 | 1005.3 |
| 20260506191441 | 13 | 222 | 1.6 | 1.6 | 0.00 | 0.00 | 0.00 | 98 | 1005.2 |
| 20260506190937 | 14 | 270 | 0.0 | 1.6 | 0.00 | 0.00 | 0.00 | 98 | 1005.4 |
| 20260506190434 | 14 | 203 | 1.6 | 3.2 | 0.00 | 0.00 | 0.00 | 98 | 1005.3 |
| 20260506185931 | 14 | 274 | 0.0 | 1.6 | 0.00 | 0.00 | 0.00 | 98 | 1005.3 |
| 20260506185428 | 14 | 274 | 1.6 | 1.6 | 0.00 | 0.00 | 0.00 | 98 | 1005.2 |
| 20260506184925 | 14 | 229 | 0.0 | 0.0 | 0.00 | 0.00 | 0.00 | 98 | 1005.1 |
| 20260506184421 | 14 | 229 | 0.0 | 0.0 | 0.00 | 0.00 | 0.00 | 98 | 1005.1 |
| 20260506183919 | 13 | 229 | 0.0 | 0.0 | 0.00 | 0.00 | 0.00 | 98 | 1005.2 |
| 20260506183414 | 13 | 229 | 0.0 | 0.0 | 0.00 | 0.00 | 0.00 | 98 | 1005.3 |
| 20260506182912 | 13 | 229 | 1.6 | 1.6 | 0.00 | 0.00 | 0.00 | 98 | 1005.2 |
| 20260506182409 | 13 | 229 | 0.0 | 0.0 | 0.00 | 0.00 | 0.00 | 98 | 1005.1 |
| 20260506181906 | 13 | 229 | 0.0 | 0.0 | 0.00 | 0.00 | 0.00 | 98 | 1005.3 |
| 20260506181404 | 13 | 229 | 0.0 | 1.6 | 0.00 | 0.00 | 0.00 | 98 | 1005.4 |
| 20260506180901 | 13 | 229 | 0.0 | 0.0 | 0.00 | 0.00 | 0.00 | 98 | 1005.4 |
| 20260506180356 | 13 | 229 | 0.0 | 0.0 | 0.00 | 0.00 | 0.00 | 98 | 1005.7 |
| 20260506175853 | 13 | 229 | 0.0 | 0.0 | 0.00 | 0.00 | 0.00 | 98 | 1005.6 |
| 20260506175350 | 13 | 229 | 0.0 | 0.0 | 0.00 | 0.00 | 0.00 | 98 | 1005.7 |
| 20260506174847 | 13 | 229 | 0.0 | 0.0 | 0.00 | 0.00 | 0.00 | 98 | 1005.6 |
| 20260506174345 | 13 | 229 | 1.6 | 1.6 | 0.00 | 0.00 | 0.00 | 98 | 1005.6 |
| 20260506173842 | 13 | 235 | 0.0 | 0.0 | 0.00 | 0.00 | 0.00 | 98 | 1005.5 |
| 20260506173338 | 13 | 235 | 1.6 | 1.6 | 0.00 | 0.00 | 0.00 | 98 | 1005.6 |
| 20260506172836 | 13 | 235 | 0.0 | 1.6 | 0.00 | 0.00 | 0.00 | 98 | 1005.5 |
| 20260506172332 | 13 | 235 | 1.6 | 1.6 | 0.00 | 0.00 | 0.00 | 98 | 1005.7 |
| 20260506171830 | 13 | 236 | 0.0 | 0.0 | 0.00 | 0.00 | 0.00 | 98 | 1005.7 |
| 20260506171327 | 13 | 236 | 0.0 | 0.0 | 0.00 | 0.00 | 0.00 | 98 | 1005.9 |
| 20260506170825 | 13 | 256 | 0.0 | 0.0 | 0.00 | 0.00 | 0.00 | 98 | 1005.7 |
| 20260506170320 | 13 | 270 | 0.0 | 1.6 | 0.00 | 0.00 | 0.00 | 98 | 1005.9 |
| 20260506165820 | 13 | 271 | 0.0 | 1.6 | 0.00 | 0.00 | 0.00 | 98 | 1005.7 |
| 20260506165317 | 13 | 233 | 0.0 | 0.0 | 0.00 | 0.00 | 0.00 | 98 | 1005.7 |
| 20260506164813 | 13 | 294 | 1.6 | 1.6 | 0.00 | 0.00 | 0.00 | 98 | 1006.0 |
| 20260506164310 | 13 | 310 | 1.6 | 1.6 | 0.00 | 0.00 | 0.00 | 98 | 1006.0 |
| 20260506163807 | 13 | 236 | 0.0 | 0.0 | 0.00 | 0.00 | 0.00 | 98 | 1005.9 |
| 20260506163301 | 13 | 280 | 0.0 | 0.0 | 0.00 | 0.00 | 0.00 | 98 | 1006.1 |
| 20260506162757 | 13 | 281 | 0.0 | 0.0 | 0.00 | 0.00 | 0.00 | 98 | 1006.3 |
| 20260506162256 | 13 | 271 | 1.6 | 1.6 | 0.00 | 0.00 | 0.00 | 98 | 1005.9 |
| 20260506161753 | 13 | 318 | 0.0 | 3.2 | 0.00 | 0.00 | 0.00 | 98 | 1006.0 |
| 20260506161250 | 13 | 300 | 0.0 | 0.0 | 0.00 | 0.00 | 0.00 | 98 | 1006.2 |
| 20260506160748 | 13 | 300 | 1.6 | 1.6 | 0.00 | 0.00 | 0.00 | 98 | 1006.0 |
| 20260506160244 | 12 | 210 | 1.6 | 3.2 | 0.00 | 0.00 | 0.00 | 98 | 1006.1 |
| 20260506155743 | 12 | 323 | 1.6 | 1.6 | 0.00 | 0.00 | 0.00 | 98 | 1006.1 |
| 20260506155239 | 12 | 179 | 3.2 | 3.2 | 0.00 | 0.00 | 0.00 | 98 | 1006.2 |
| 20260506153346 | 12 | 230 | 1.6 | 1.6 | 0.00 | 0.00 | 0.00 | 98 | 1006.5 |
| 20260506152843 | 12 | 231 | 0.0 | 0.0 | 0.00 | 0.00 | 0.00 | 98 | 1006.5 |
| 20260506152340 | 12 | 231 | 0.0 | 0.0 | 0.00 | 0.00 | 0.00 | 98 | 1006.5 |
| 20260506151839 | 12 | 231 | 1.6 | 1.6 | 0.00 | 0.00 | 0.00 | 98 | 1006.6 |
| 20260506151335 | 12 | 231 | 1.6 | 1.6 | 0.00 | 0.00 | 0.00 | 98 | 1006.6 |
| 20260506150832 | 12 | 231 | 1.6 | 1.6 | 0.00 | 0.00 | 0.00 | 98 | 1006.8 |
| 20260506150329 | 12 | 231 | 1.6 | 1.6 | 0.00 | 0.00 | 0.00 | 98 | 1006.9 |
| 20260506145826 | 12 | 0 | 0.0 | 0.0 | 0.00 | 0.00 | 0.00 | 98 | 1006.8 |
| 20260506145322 | 12 | 0 | 0.0 | 0.0 | 0.00 | 0.00 | 0.00 | 98 | 1007.1 |
| 20260506144820 | 12 | 0 | 0.0 | 0.0 | 0.00 | 0.00 | 0.00 | 98 | 1007.4 |
| 20260506144316 | 12 | 359 | 0.0 | 0.0 | 0.00 | 0.00 | 0.00 | 98 | 1007.0 |
| 20260506143815 | 12 | 355 | 0.0 | 0.0 | 0.00 | 0.00 | 0.00 | 98 | 1007.2 |
| 20260506143311 | 12 | 346 | 0.0 | 0.0 | 0.00 | 0.00 | 0.00 | 98 | 1007.4 |
| 20260506142810 | 12 | 346 | 0.0 | 0.0 | 0.00 | 0.00 | 0.00 | 98 | 1007.3 |
| 20260506142307 | 12 | 346 | 0.0 | 0.0 | 0.00 | 0.00 | 0.00 | 98 | 1007.5 |
| 20260506141805 | 12 | 346 | 0.0 | 0.0 | 0.00 | 0.00 | 0.00 | 98 | 1007.3 |
| 20260506141303 | 12 | 345 | 0.0 | 0.0 | 0.00 | 0.00 | 0.00 | 99 | 1007.3 |
| 20260506140801 | 12 | 345 | 0.0 | 0.0 | 0.00 | 0.00 | 0.00 | 99 | 1007.4 |
| 20260506140257 | 12 | 342 | 0.0 | 0.0 | 0.00 | 0.00 | 0.00 | 99 | 1007.6 |
| 20260506135755 | 12 | 342 | 0.0 | 0.0 | 0.00 | 0.00 | 0.00 | 99 | 1007.7 |
| 20260506135251 | 12 | 339 | 0.0 | 0.0 | 0.00 | 0.00 | 0.00 | 99 | 1007.5 |
| 20260506134748 | 12 | 339 | 0.0 | 0.0 | 0.00 | 0.00 | 0.00 | 99 | 1007.6 |
| 20260506134244 | 12 | 339 | 0.0 | 0.0 | 0.00 | 0.00 | 0.00 | 99 | 1007.5 |
| 20260506133741 | 12 | 339 | 0.0 | 0.0 | 0.00 | 0.00 | 0.00 | 99 | 1007.4 |
| 20260506133238 | 12 | 339 | 1.6 | 1.6 | 0.00 | 0.00 | 0.00 | 99 | 1007.3 |
| 20260506132735 | 12 | 339 | 0.0 | 1.6 | 0.00 | 0.00 | 0.00 | 99 | 1007.3 |
| 20260506132232 | 12 | 332 | 0.0 | 1.6 | 0.00 | 0.00 | 0.00 | 99 | 1007.2 |
| 20260506131730 | 11 | 332 | 0.0 | 1.6 | 0.00 | 0.00 | 0.00 | 99 | 1007.1 |
| 20260506131225 | 11 | 309 | 0.0 | 1.6 | 0.00 | 0.00 | 0.00 | 99 | 1007.1 |
| 20260506130723 | 11 | 256 | 0.0 | 0.0 | 0.00 | 0.00 | 0.00 | 99 | 1007.4 |
| 20260506130219 | 11 | 256 | 0.0 | 0.0 | 0.00 | 0.00 | 0.00 | 99 | 1007.4 |
| 20260506125718 | 11 | 256 | 0.0 | 0.0 | 0.00 | 0.00 | 0.00 | 99 | 1007.3 |
| 20260506125215 | 11 | 256 | 0.0 | 0.0 | 0.00 | 0.00 | 0.00 | 99 | 1007.3 |
| 20260506124713 | 11 | 256 | 0.0 | 0.0 | 0.00 | 0.00 | 0.00 | 98 | 1007.3 |
| 20260506124211 | 11 | 256 | 0.0 | 0.0 | 0.00 | 0.00 | 0.00 | 98 | 1007.6 |
| 20260506123708 | 11 | 256 | 0.0 | 0.0 | 0.00 | 0.00 | 0.00 | 99 | 1007.6 |
| 20260506123207 | 11 | 256 | 0.0 | 0.0 | 0.00 | 0.00 | 0.00 | 98 | 1007.7 |
| 20260506122703 | 10 | 256 | 0.0 | 0.0 | 0.00 | 0.00 | 0.00 | 98 | 1007.6 |
| 20260506122201 | 10 | 256 | 0.0 | 0.0 | 0.00 | 0.00 | 0.00 | 98 | 1007.9 |
| 20260506121658 | 10 | 256 | 0.0 | 0.0 | 0.00 | 0.00 | 0.00 | 98 | 1007.7 |
| 20260506121154 | 10 | 256 | 0.0 | 0.0 | 0.00 | 0.00 | 0.00 | 98 | 1007.7 |
| 20260506120652 | 10 | 255 | 0.0 | 1.6 | 0.00 | 0.00 | 0.00 | 98 | 1008.1 |
| 20260506120149 | 10 | 256 | 0.0 | 0.0 | 0.00 | 0.00 | 0.00 | 98 | 1007.9 |
| 20260506115648 | 10 | 255 | 1.6 | 1.6 | 0.00 | 0.00 | 0.00 | 98 | 1008.0 |
| 20260506115146 | 10 | 252 | 3.2 | 3.2 | 0.00 | 0.00 | 0.00 | 98 | 1008.2 |
| 20260506114643 | 10 | 301 | 0.0 | 1.6 | 0.00 | 0.00 | 0.00 | 98 | 1007.9 |
| 20260506114140 | 10 | 263 | 1.6 | 1.6 | 0.00 | 0.00 | 0.00 | 98 | 1008.2 |
| 20260506113639 | 10 | 262 | 0.0 | 0.0 | 0.00 | 0.00 | 0.00 | 98 | 1008.0 |
| 20260506113136 | 10 | 262 | 0.0 | 1.6 | 0.00 | 0.00 | 0.00 | 98 | 1007.9 |
| 20260506112632 | 10 | 292 | 1.6 | 3.2 | 0.00 | 0.00 | 0.00 | 98 | 1007.9 |
| 20260506112129 | 10 | 274 | 0.0 | 3.2 | 0.00 | 0.00 | 0.00 | 98 | 1008.0 |
| 20260506111627 | 10 | 349 | 0.0 | 0.0 | 0.00 | 0.00 | 0.00 | 98 | 1007.7 |
| 20260506111125 | 10 | 349 | 0.0 | 0.0 | 0.00 | 0.00 | 0.00 | 98 | 1007.7 |
| 20260506110622 | 10 | 349 | 0.0 | 0.0 | 0.00 | 0.00 | 0.00 | 98 | 1007.9 |
| 20260506110119 | 10 | 349 | 0.0 | 0.0 | 0.00 | 0.00 | 0.00 | 98 | 1007.7 |
| 20260506105616 | 10 | 349 | 0.0 | 0.0 | 0.00 | 0.00 | 0.00 | 98 | 1007.6 |
| 20260506105113 | 10 | 349 | 0.0 | 0.0 | 0.00 | 0.00 | 0.00 | 98 | 1007.4 |
| 20260506104611 | 10 | 349 | 0.0 | 0.0 | 0.00 | 0.00 | 0.00 | 98 | 1007.5 |
| 20260506104108 | 10 | 349 | 0.0 | 0.0 | 0.00 | 0.00 | 0.00 | 98 | 1007.7 |
| 20260506103605 | 10 | 349 | 0.0 | 0.0 | 0.00 | 0.00 | 0.00 | 98 | 1007.6 |
| 20260506103102 | 10 | 349 | 1.6 | 1.6 | 0.00 | 0.00 | 0.00 | 98 | 1007.6 |
| 20260506102600 | 10 | 349 | 0.0 | 0.0 | 0.00 | 0.00 | 0.00 | 98 | 1007.7 |
| 20260506102057 | 10 | 21 | 3.2 | 3.2 | 0.00 | 0.00 | 0.00 | 98 | 1007.7 |
| 20260506101554 | 10 | 26 | 4.8 | 4.8 | 0.00 | 0.00 | 0.00 | 98 | 1007.6 |
| 20260506101051 | 10 | 233 | 1.6 | 1.6 | 0.00 | 0.00 | 0.00 | 98 | 1007.6 |
| 20260506100549 | 10 | 233 | 0.0 | 0.0 | 0.00 | 0.00 | 0.00 | 98 | 1007.7 |
| 20260506100047 | 10 | 233 | 0.0 | 1.6 | 0.00 | 0.00 | 0.00 | 98 | 1008.0 |
| 20260506095545 | 10 | 233 | 0.0 | 0.0 | 0.00 | 0.00 | 0.00 | 98 | 1007.7 |
| 20260506095041 | 10 | 233 | 0.0 | 0.0 | 0.00 | 0.00 | 0.00 | 98 | 1007.6 |
| 20260506094539 | 10 | 233 | 0.0 | 0.0 | 0.00 | 0.00 | 0.00 | 98 | 1007.6 |
| 20260506094037 | 10 | 233 | 0.0 | 0.0 | 0.00 | 0.00 | 0.00 | 98 | 1007.5 |
| 20260506093535 | 10 | 233 | 0.0 | 0.0 | 0.00 | 0.00 | 0.00 | 98 | 1007.7 |
| 20260506093032 | 10 | 233 | 0.0 | 0.0 | 0.00 | 0.00 | 0.00 | 97 | 1007.2 |
| 20260506092530 | 10 | 233 | 0.0 | 0.0 | 0.00 | 0.00 | 0.00 | 97 | 1007.5 |
| 20260506092026 | 10 | 233 | 0.0 | 0.0 | 0.00 | 0.00 | 0.00 | 97 | 1007.3 |
| 20260506091525 | 10 | 233 | 0.0 | 0.0 | 0.00 | 0.00 | 0.00 | 98 | 1007.4 |
| 20260506091022 | 10 | 233 | 0.0 | 0.0 | 0.00 | 0.00 | 0.00 | 98 | 1007.6 |
| 20260506090520 | 10 | 233 | 0.0 | 1.6 | 0.00 | 0.00 | 0.00 | 98 | 1007.5 |
| 20260506090016 | 10 | 233 | 0.0 | 1.6 | 0.00 | 0.00 | 0.00 | 98 | 1007.3 |
| 20260506085513 | 10 | 233 | 0.0 | 0.0 | 0.00 | 0.00 | 0.00 | 98 | 1007.7 |
| 20260506085009 | 10 | 233 | 0.0 | 1.6 | 0.00 | 0.00 | 0.00 | 98 | 1007.9 |
| 20260506084506 | 10 | 233 | 0.0 | 0.0 | 0.00 | 0.00 | 0.00 | 98 | 1007.6 |
| 20260506084002 | 10 | 233 | 0.0 | 0.0 | 0.00 | 0.00 | 0.00 | 97 | 1007.3 |
| 20260506083459 | 10 | 233 | 0.0 | 1.6 | 0.00 | 0.00 | 0.00 | 97 | 1007.7 |
| 20260506082956 | 10 | 233 | 0.0 | 1.6 | 0.00 | 0.00 | 0.00 | 97 | 1008.1 |
| 20260506082454 | 10 | 233 | 0.0 | 0.0 | 0.00 | 0.00 | 0.00 | 97 | 1008.1 |
| 20260506081949 | 10 | 233 | 0.0 | 0.0 | 0.00 | 0.00 | 0.00 | 97 | 1008.2 |
| 20260506081448 | 10 | 233 | 0.0 | 0.0 | 0.00 | 0.00 | 0.00 | 97 | 1007.9 |
| 20260506080945 | 10 | 233 | 0.0 | 0.0 | 0.00 | 0.00 | 0.00 | 97 | 1008.0 |
| 20260506080442 | 10 | 233 | 0.0 | 0.0 | 0.00 | 0.00 | 0.00 | 97 | 1008.2 |
| 20260506073426 | 10 | 233 | 0.0 | 0.0 | 0.00 | 0.00 | 0.00 | 97 | 1008.4 |
| 20260506072923 | 10 | 233 | 0.0 | 0.0 | 0.00 | 0.00 | 0.00 | 97 | 1008.6 |
| 20260506072420 | 10 | 233 | 0.0 | 0.0 | 0.00 | 0.00 | 0.00 | 97 | 1008.6 |
| 20260506071918 | 10 | 233 | 0.0 | 0.0 | 0.00 | 0.00 | 0.00 | 97 | 1008.8 |
| 20260506071416 | 10 | 233 | 0.0 | 0.0 | 0.00 | 0.00 | 0.00 | 97 | 1008.6 |
| 20260506070912 | 10 | 233 | 0.0 | 0.0 | 0.00 | 0.00 | 0.00 | 97 | 1008.6 |
| 20260506070409 | 10 | 233 | 0.0 | 0.0 | 0.00 | 0.00 | 0.00 | 96 | 1008.7 |
| 20260506062346 | 10 | 233 | 0.0 | 0.0 | 0.00 | 0.00 | 0.00 | 95 | 1008.7 |
| 20260506061842 | 11 | 233 | 0.0 | 0.0 | 0.00 | 0.00 | 0.00 | 95 | 1008.7 |
| 20260506061339 | 11 | 233 | 0.0 | 0.0 | 0.00 | 0.00 | 0.00 | 95 | 1008.9 |
| 20260506060837 | 11 | 233 | 0.0 | 0.0 | 0.00 | 0.00 | 0.00 | 95 | 1008.7 |
| 20260506060335 | 11 | 233 | 0.0 | 0.0 | 0.00 | 0.00 | 0.00 | 95 | 1008.9 |
| 20260506051307 | 11 | 233 | 0.0 | 0.0 | 0.00 | 0.00 | 0.00 | 96 | 1008.9 |
| 20260506050805 | 11 | 233 | 0.0 | 1.6 | 0.00 | 0.00 | 0.00 | 96 | 1008.7 |
| 20260506050302 | 11 | 233 | 0.0 | 0.0 | 0.00 | 0.00 | 0.00 | 96 | 1008.7 |
| 20260506044752 | 11 | 233 | 1.6 | 0.0 | 0.00 | 0.00 | 0.00 | 95 | 1009.4 |
| 20260506044250 | 11 | 233 | 0.0 | 0.0 | 0.00 | 0.00 | 0.00 | 94 | 1009.3 |
| 20260506043747 | 11 | 233 | 0.0 | 0.0 | 0.00 | 0.00 | 0.00 | 94 | 1009.2 |
| 20260506043244 | 11 | 233 | 0.0 | 1.6 | 0.00 | 0.00 | 0.00 | 94 | 1009.2 |
| 20260506042743 | 12 | 233 | 0.0 | 1.6 | 0.00 | 0.00 | 0.00 | 94 | 1009.3 |
| 20260506042241 | 12 | 233 | 1.6 | 1.6 | 0.00 | 0.00 | 0.00 | 93 | 1009.3 |
| 20260506041739 | 12 | 235 | 1.6 | 1.6 | 0.00 | 0.00 | 0.00 | 93 | 1009.3 |
| 20260506041236 | 12 | 235 | 1.6 | 1.6 | 0.00 | 0.00 | 0.00 | 94 | 1009.6 |
| 20260506040733 | 12 | 235 | 1.6 | 1.6 | 0.00 | 0.00 | 0.00 | 93 | 1009.6 |
| 20260506040230 | 12 | 249 | 0.0 | 1.6 | 0.00 | 0.00 | 0.00 | 94 | 1009.6 |
| 20260506035727 | 12 | 256 | 1.6 | 3.2 | 0.00 | 0.00 | 0.00 | 95 | 1009.9 |
| 20260506035224 | 12 | 252 | 0.0 | 0.0 | 0.00 | 0.00 | 0.00 | 95 | 1009.6 |
| 20260506034720 | 12 | 257 | 0.0 | 0.0 | 0.00 | 0.00 | 0.00 | 95 | 1009.5 |
| 20260506034218 | 12 | 265 | 0.0 | 0.0 | 0.00 | 0.00 | 0.00 | 96 | 1009.3 |
| 20260506033715 | 13 | 265 | 0.0 | 0.0 | 0.00 | 0.00 | 0.00 | 96 | 1009.3 |
| 20260506033212 | 13 | 265 | 0.0 | 0.0 | 0.00 | 0.00 | 0.00 | 97 | 1009.3 |
| 20260506032709 | 13 | 265 | 0.0 | 1.6 | 0.00 | 0.00 | 0.00 | 97 | 1009.3 |
| 20260506032206 | 13 | 265 | 1.6 | 1.6 | 0.00 | 0.00 | 0.00 | 97 | 1009.3 |
| 20260506031702 | 13 | 265 | 0.0 | 0.0 | 0.00 | 0.00 | 0.00 | 97 | 1009.3 |
| 20260506031200 | 13 | 265 | 0.0 | 0.0 | 0.00 | 0.00 | 0.00 | 98 | 1009.3 |
| 20260506030658 | 13 | 265 | 0.0 | 0.0 | 0.00 | 0.00 | 0.00 | 98 | 1009.4 |
| 20260506030155 | 13 | 265 | 0.0 | 1.6 | 0.00 | 0.00 | 0.00 | 98 | 1009.3 |
| 20260506025652 | 13 | 265 | 0.0 | 1.6 | 0.00 | 0.00 | 0.00 | 98 | 1009.3 |
| 20260506025148 | 13 | 276 | 0.0 | 0.0 | 0.00 | 0.00 | 0.00 | 98 | 1009.1 |
| 20260506024646 | 13 | 276 | 0.0 | 0.0 | 0.00 | 0.00 | 0.00 | 98 | 1009.2 |
| 20260506024142 | 13 | 276 | 0.0 | 0.0 | 0.00 | 0.00 | 0.00 | 98 | 1009.0 |
| 20260506023638 | 13 | 276 | 0.0 | 0.0 | 0.00 | 0.00 | 0.00 | 98 | 1009.2 |
| 20260506023135 | 13 | 279 | 0.0 | 0.0 | 0.00 | 0.00 | 0.00 | 98 | 1008.9 |
| 20260506022633 | 13 | 279 | 0.0 | 0.0 | 0.00 | 0.00 | 0.00 | 98 | 1009.0 |
| 20260506022130 | 13 | 279 | 0.0 | 0.0 | 0.00 | 0.00 | 0.00 | 98 | 1008.8 |
| 20260506021628 | 13 | 299 | 0.0 | 0.0 | 0.00 | 0.00 | 0.00 | 98 | 1009.0 |
| 20260506021125 | 13 | 299 | 0.0 | 0.0 | 0.00 | 0.00 | 0.00 | 98 | 1008.8 |
| 20260506020622 | 13 | 299 | 0.0 | 1.6 | 0.00 | 0.00 | 0.00 | 98 | 1008.7 |
| 20260506020119 | 13 | 257 | 0.0 | 0.0 | 0.00 | 0.00 | 0.00 | 98 | 1008.7 |
| 20260506015617 | 13 | 242 | 4.8 | 4.8 | 0.00 | 0.00 | 0.00 | 98 | 1008.7 |
| 20260506015114 | 13 | 269 | 0.0 | 0.0 | 0.00 | 0.00 | 0.00 | 97 | 1009.0 |
| 20260506014611 | 13 | 269 | 0.0 | 0.0 | 0.00 | 0.00 | 0.00 | 97 | 1008.5 |
| 20260506014106 | 13 | 269 | 0.0 | 0.0 | 0.00 | 0.00 | 0.00 | 97 | 1008.5 |
| 20260506013605 | 13 | 269 | 0.0 | 0.0 | 0.00 | 0.00 | 0.00 | 97 | 1008.4 |
| 20260506013101 | 13 | 269 | 0.0 | 0.0 | 0.00 | 0.00 | 0.00 | 97 | 1008.2 |
| 20260506012558 | 13 | 269 | 0.0 | 0.0 | 0.00 | 0.00 | 0.00 | 97 | 1008.1 |
| 20260506012054 | 13 | 269 | 0.0 | 0.0 | 0.00 | 0.00 | 0.00 | 97 | 1007.7 |
| 20260506011552 | 13 | 269 | 0.0 | 0.0 | 0.00 | 0.00 | 0.00 | 97 | 1007.7 |
| 20260506011048 | 14 | 269 | 0.0 | 0.0 | 0.00 | 0.00 | 0.00 | 97 | 1007.6 |
| 20260506010548 | 14 | 269 | 0.0 | 0.0 | 0.00 | 0.00 | 0.00 | 97 | 1007.4 |
| 20260506010044 | 14 | 269 | 0.0 | 0.0 | 0.00 | 0.00 | 0.00 | 97 | 1007.4 |
| 20260506005541 | 13 | 269 | 0.0 | 0.0 | 0.00 | 0.00 | 0.00 | 97 | 1007.4 |
| 20260506005037 | 13 | 269 | 0.0 | 0.0 | 0.00 | 0.00 | 0.00 | 97 | 1007.4 |
| 20260506004535 | 13 | 269 | 0.0 | 0.0 | 0.00 | 0.00 | 0.00 | 97 | 1007.2 |
| 20260506004031 | 13 | 269 | 0.0 | 0.0 | 0.00 | 0.00 | 0.00 | 97 | 1007.4 |
| 20260506003528 | 13 | 269 | 0.0 | 0.0 | 0.00 | 0.00 | 0.00 | 97 | 1007.6 |
| 20260506003024 | 13 | 269 | 0.0 | 0.0 | 0.00 | 0.00 | 0.00 | 96 | 1007.9 |
| 20260506002520 | 13 | 269 | 0.0 | 0.0 | 0.00 | 0.00 | 0.00 | 96 | 1007.7 |
| 20260506002015 | 13 | 269 | 0.0 | 0.0 | 0.00 | 0.00 | 0.00 | 96 | 1007.3 |
| 20260506001512 | 13 | 269 | 0.0 | 0.0 | 0.00 | 0.00 | 0.00 | 96 | 1007.0 |
| 20260506001009 | 13 | 269 | 0.0 | 0.0 | 0.00 | 0.00 | 0.00 | 96 | 1006.9 |
| 20260506000507 | 13 | 269 | 0.0 | 0.0 | 0.00 | 0.00 | 0.00 | 96 | 1007.1 |
| 20260506000004 | 14 | 269 | 0.0 | 0.0 | 0.00 | 0.00 | 0.00 | 96 | 1006.9 |
| 20260505235502 | 14 | 269 | 0.0 | 0.0 | 0.00 | 0.00 | 0.00 | 96 | 1006.9 |
| 20260505234958 | 14 | 269 | 0.0 | 0.0 | 0.00 | 0.00 | 0.00 | 96 | 1007.1 |
| 20260505234456 | 14 | 269 | 0.0 | 0.0 | 0.00 | 0.00 | 0.00 | 96 | 1007.0 |
| 20260505233952 | 15 | 269 | 0.0 | 0.0 | 0.00 | 0.00 | 0.00 | 96 | 1006.7 |
| 20260505233450 | 15 | 269 | 0.0 | 0.0 | 0.00 | 0.00 | 0.00 | 95 | 1006.7 |
| 20260505232947 | 15 | 269 | 0.0 | 0.0 | 0.00 | 0.00 | 0.00 | 95 | 1006.8 |
| 20260505232445 | 15 | 269 | 0.0 | 0.0 | 0.00 | 0.00 | 0.00 | 95 | 1006.6 |
| 20260505231942 | 15 | 269 | 0.0 | 0.0 | 0.00 | 0.00 | 0.00 | 95 | 1006.5 |
| 20260505231439 | 15 | 269 | 0.0 | 0.0 | 0.00 | 0.00 | 0.00 | 95 | 1006.4 |
| 20260505230937 | 15 | 269 | 0.0 | 0.0 | 0.00 | 0.00 | 0.00 | 95 | 1006.5 |
| 20260505230435 | 15 | 269 | 0.0 | 0.0 | 0.00 | 0.00 | 0.00 | 94 | 1006.3 |
| 20260505225931 | 15 | 269 | 0.0 | 0.0 | 0.00 | 0.00 | 0.00 | 94 | 1006.3 |
| 20260505225428 | 15 | 269 | 0.0 | 0.0 | 0.00 | 0.00 | 0.00 | 94 | 1006.3 |
| 20260505224924 | 15 | 269 | 0.0 | 0.0 | 0.00 | 0.00 | 0.00 | 94 | 1006.4 |
| 20260505224421 | 15 | 269 | 0.0 | 0.0 | 0.00 | 0.00 | 0.00 | 94 | 1006.5 |
| 20260505223918 | 15 | 269 | 0.0 | 0.0 | 0.00 | 0.00 | 0.00 | 94 | 1006.2 |
| 20260505223415 | 14 | 269 | 0.0 | 0.0 | 0.00 | 0.00 | 0.00 | 93 | 1006.2 |
| 20260505222911 | 15 | 269 | 0.0 | 0.0 | 0.00 | 0.00 | 0.00 | 93 | 1006.3 |
| 20260505222408 | 15 | 269 | 0.0 | 0.0 | 0.00 | 0.00 | 0.00 | 93 | 1006.5 |
| 20260505221904 | 15 | 269 | 0.0 | 0.0 | 0.00 | 0.00 | 0.00 | 93 | 1006.8 |
| 20260505221401 | 15 | 269 | 0.0 | 0.0 | 0.00 | 0.00 | 0.00 | 92 | 1006.7 |
| 20260505220858 | 15 | 269 | 1.6 | 1.6 | 0.00 | 0.00 | 0.00 | 91 | 1006.8 |
| 20260505220355 | 15 | 269 | 0.0 | 0.0 | 0.00 | 0.00 | 0.00 | 90 | 1007.0 |
| 20260505215853 | 15 | 300 | 3.2 | 3.2 | 0.00 | 0.00 | 0.00 | 89 | 1007.3 |
| 20260505215351 | 15 | 235 | 0.0 | 3.2 | 0.00 | 0.00 | 0.00 | 88 | 1007.5 |
| 20260505214849 | 15 | 274 | 3.2 | 4.8 | 0.00 | 0.00 | 0.00 | 87 | 1007.7 |
| 20260505214346 | 15 | 32 | 3.2 | 3.2 | 0.00 | 0.00 | 0.00 | 85 | 1007.9 |
| 20260505213843 | 16 | 300 | 1.6 | 1.6 | 0.00 | 0.00 | 0.00 | 81 | 1007.6 |
| 20260505213341 | 16 | 286 | 1.6 | 1.6 | 0.00 | 0.00 | 0.00 | 77 | 1007.3 |
| 20260505212836 | 17 | 252 | 6.4 | 9.7 | 0.00 | 0.00 | 0.00 | 72 | 1006.9 |
| 20260505212334 | 17 | 191 | 3.2 | 4.8 | 0.00 | 0.00 | 0.00 | 70 | 1006.5 |
| 20260505211829 | 17 | 30 | 3.2 | 4.8 | 0.00 | 0.00 | 0.00 | 66 | 1006.4 |
| 20260505211328 | 17 | 290 | 1.6 | 1.6 | 0.00 | 0.00 | 0.00 | 66 | 1005.9 |
| 20260505210824 | 17 | 277 | 3.2 | 9.7 | 0.00 | 0.00 | 0.00 | 67 | 1006.0 |
| 20260505210321 | 17 | 301 | 3.2 | 9.7 | 0.00 | 0.00 | 0.00 | 65 | 1006.2 |
| 20260505205818 | 18 | 295 | 9.7 | 22.5 | 0.00 | 0.00 | 0.00 | 63 | 1006.0 |
| 20260505205316 | 18 | 258 | 11.3 | 14.5 | 0.00 | 0.00 | 0.00 | 61 | 1005.9 |
| 20260505204812 | 18 | 307 | 8.0 | 16.1 | 0.00 | 0.00 | 0.00 | 60 | 1006.0 |
| 20260505204310 | 19 | 266 | 1.6 | 14.5 | 0.00 | 0.00 | 0.00 | 60 | 1006.1 |
| 20260505203807 | 20 | 293 | 6.4 | 12.9 | 0.00 | 0.00 | 0.00 | 59 | 1006.0 |
| 20260505203304 | 21 | 269 | 3.2 | 12.9 | 0.00 | 0.00 | 0.00 | 57 | 1005.9 |
| 20260505202800 | 21 | 22 | 3.2 | 9.7 | 0.00 | 0.00 | 0.00 | 53 | 1005.2 |
| 20260505202256 | 22 | 283 | 3.2 | 6.4 | 0.00 | 0.00 | 0.00 | 51 | 1005.1 |
| 20260505201753 | 22 | 297 | 3.2 | 3.2 | 0.00 | 0.00 | 0.00 | 51 | 1004.7 |
| 20260505201251 | 22 | 278 | 3.2 | 3.2 | 0.00 | 0.00 | 0.00 | 51 | 1004.6 |
| 20260505200749 | 22 | 285 | 1.6 | 3.2 | 0.00 | 0.00 | 0.00 | 53 | 1004.7 |
| 20260505200246 | 21 | 276 | 1.6 | 9.7 | 0.00 | 0.00 | 0.00 | 54 | 1004.6 |
| 20260505195741 | 21 | 252 | 1.6 | 6.4 | 0.00 | 0.00 | 0.00 | 53 | 1004.7 |
| 20260505195239 | 21 | 233 | 1.6 | 3.2 | 0.00 | 0.00 | 0.00 | 61 | 1004.6 |
| 20260505194736 | 20 | 192 | 6.4 | 11.3 | 0.00 | 0.00 | 0.00 | 60 | 1004.6 |
| 20260505194232 | 20 | 261 | 1.6 | 1.6 | 0.00 | 0.00 | 0.00 | 62 | 1004.8 |
| 20260505193728 | 19 | 323 | 1.6 | 1.6 | 0.00 | 0.00 | 0.00 | 63 | 1004.3 |